Lexington Weather

Lexington, Massachusetts, USA

59°F
10/23/2020 5:51pm 
  • Lexington Conditions: Overcast
  • Temperature: 59.2°F / 15.1°CColder 2.5°F than last hour.
  • Dew Point: 53.4°FDecreased 1.6°Fsince last hour.
  • Relative Humidity: 81%Increased 2.0% since last hour.
  • Wind: Wind from SSW SSW Calm, 10-min avg: 1 mph, gust: 4 mph
  • Barometer: 30.08 inFalling 0.02  inHg/hr Falling Slowly
  • Visibility: 10 miles
  • Rain Today: 0.00 in
  •   

Regional Weather Roundup
for Boston / Norton, MA

        
000
ASUS41 KBOX 171505
RWRBOX

REGIONAL WEATHER ROUNDUP
NATIONAL WEATHER SERVICE BOSTON/NORTON MA
1100 AM EDT SAT OCT 17 2020

NOTE:  "FAIR" INDICATES FEW OR NO CLOUDS BELOW 12,000 FEET WITH NO 
SIGNIFICANT WEATHER AND/OR OBSTRUCTIONS TO VISIBILITY.

MAZALL-171600-
EASTERN MASSACHUSETTS
  
CITY           SKY/WX    TMP DP  RH WIND       PRES   REMARKS
BOSTON         MOSUNNY   46  40  79 NW20G28   30.17R                  
BEVERLY        LGT RAIN  44  40  85 NW12      30.15R                  
LAWRENCE       PTSUNNY   45  41  86 W15G23    30.17R                  
BEDFORD        MOSUNNY   48  41  76 NW15      30.17R                  
BLUE HILL        N/A     44  40  85 NW13G28   30.14R                  
NORWOOD        MOSUNNY   50  40  68 NW15G22   30.18R                  
MARSHFIELD     CLOUDY    48  45  87 NW12G20   30.15R                  
PLYMOUTH       MOSUNNY   47  41  80 NW16G22   30.16R                  
TAUNTON        MOSUNNY   50  41  71 NW15      30.18R                  
NEW BEDFORD    MOSUNNY   50  42  74 NW15G21   30.17R                  
$$

MAZALL-171600-
CAPE COD AND THE ISLANDS
  
CITY           SKY/WX    TMP DP  RH WIND       PRES   REMARKS
FALMOUTH       PTSUNNY   46  43  87 NW17G28   30.16R                  
HYANNIS        CLOUDY    47  42  83 NW15G24   30.13R                  
CHATHAM        LGT RAIN  49  45  86 W15G25    30.13R FOG              
PROVINCETOWN   CLOUDY    46  44  93 W24G32    30.14R                  
NANTUCKET      CLOUDY    54  48  80 NW17G25   30.14R                  
MARTHAS VNYRD  CLOUDY    49  42  77 NW17G30   30.17R                  
$$
 
MAZALL-171600-
CENTRAL AND WESTERN MASSACHUSETTS
  
CITY           SKY/WX    TMP DP  RH WIND       PRES   REMARKS
WORCESTER      MOSUNNY   47  38  71 NW14G23   30.18R                  
FITCHBURG      MOSUNNY   49  39  68 NW18G25   30.20R                  
ORANGE         MOSUNNY   50  39  66 NW14G25   30.22R                  
SPRINGFIELD    MOSUNNY   52  38  59 NW14G23   30.22R                  
WESTFIELD      PTSUNNY   51  38  60 NW16      30.24R                  
NORTH ADAMS    SUNNY     49  35  58 VRB6      30.25R                  
PITTSFIELD     SUNNY     49  36  61 MISG      30.24R                  
$$
 
RIZALL-171600-
RHODE ISLAND
  
CITY           SKY/WX    TMP DP  RH WIND       PRES   REMARKS
PROVIDENCE     MOSUNNY   50  41  71 NW13G22   30.21R                  
NEWPORT        MOSUNNY   48  40  73 NW20G29   30.19R                  
BLOCK ISLAND   MOSUNNY   50  41  71 NW13G20   30.23R                  
SMITHFIELD     MOSUNNY   48  42  80 NW16G24     N/A                   
WESTERLY       MOSUNNY   52  40  63 NW10      30.23R                  
$$
 
CTZALL-171600-
CONNECTICUT
  
CITY           SKY/WX    TMP DP  RH WIND       PRES   REMARKS
BRADLEY INTL   MOSUNNY   53  38  56 NW12G18   30.24R                  
HARTFORD       MOSUNNY   53  38  56 NW13      30.25R                  
BRIDGEPORT     SUNNY     54  38  54 N13       30.27R                  
DANBURY        SUNNY     51  35  54 NW13G23   30.29R                  
GROTON         SUNNY     52  40  63 NW17G24   30.23R                  
NEW HAVEN      MOSUNNY   54  41  61 NW14G21   30.26R                  
CHESTER        FAIR      54  39  58 NW15G22   30.24R                  
MERIDEN        MOSUNNY   53  38  56 N12G21    30.26R                  
WILLIMANTIC    MOSUNNY   50  39  66 NW10G20   30.23R                  
OXFORD         SUNNY     49  38  65 NW12G24   30.26R                  
$$

MEZ002-015-021-024-NHZ003-005-008-011-012-014-VTZ005-008-171600-
NORTHERN NEW ENGLAND
  
CITY           SKY/WX    TMP DP  RH WIND       PRES   REMARKS
PORTLAND ME    LGT RAIN  44  42  93 NW14      30.02F                  
BANGOR ME      LGT RAIN  44  42  93 W8        29.96S FOG              
CONCORD NH     CLOUDY    43  37  79 W10G21    30.16R                  
MANCHESTER NH  MOSUNNY   46  37  71 W15G23    30.15R                  
NASHUA NH      MOSUNNY   47  42  83 NW16G23   30.18R                  
PORTSMOUTH NH  CLOUDY    42  39  88 W10G21    30.12                   
JAFFREY NH     MOSUNNY   46  36  68 NW9       30.19R                  
KEENE NH       PTSUNNY   49  39  68 N14G20    30.21R                  
BURLINGTON VT  MOSUNNY   50  39  66 NW8       30.24R                  
MT. WASHINGTON SNOW      21  21 100 NW47        N/A  VSB 1/16WCI  -1  
$$

NYZ052-076-171600-
EASTERN NEW YORK
  
CITY           SKY/WX    TMP DP  RH WIND       PRES   REMARKS
ALBANY         MOSUNNY   49  33  54 W12       30.28R                  
NEW YORK CITY  SUNNY     54  34  46 NW9       30.30R                  
$$
 
ANZALL-171600-
MARINE OBSERVATIONS
  
STATION/POSITION TIME  TEMP    WIND        PRES    VSBY  WAVE
                       AIR SEA DIR/SP/G                  HT/PER
                 (UTC) (F)     (DEG/KT/KT) (MB)    (MI)  (FT/S)
BOSTON BUOY      1450   47 57  300/ 25/ 29 1018.9R         5/ 5
BUZZARDS BAY     1400          310/ 26/ 30 1022.7R
NANTUCKET SOUND  1450      62  290/ 21/ 27   N/A           2/ 3
MASS BAY-STELLWA 1404   47 58  280/ 21/ 27 1018.6R  1 5/8  4/ 5
ISLE OF SHOALS   1400   45     270/ 20/ 21 1017.8R
S OF BLOCK IS    1426      63                N/A           5/ 5
$$

......................KEY.........................
  SKY/WX - SKY CONDITION/PRESENT WEATHER
  TMP    - TEMPERATURE IN FAHRENHEIT
  DWPT   - DEWPOINT IN FAHRENHEIT
  RH     - RELATIVE HUMIDITY IN PERCENT
  WIND   - DIRECTION AND SPEED IN MPH
  PRES   - MEAN SEA LEVEL PRESSURE IN INCHES OF HG
  WCI    - WIND CHILL INDEX
  VSB    - VISIBILITY IN MILES
  HX     - HEAT INDEX
  TC     - TEMPERATURE IN CELSIUS
  VRB    - VARIABLE WIND DIRECTION
  N/A    - NOT AVAILABLE
  
      

Other recent Regional Weather Roundups

Fri Oct 23, 5:05pm

Fri Oct 23, 4:04pm

Fri Oct 23, 3:04pm

Fri Oct 23, 2:05pm

Fri Oct 23, 1:04pm

Fri Oct 23, 12:04pm

Fri Oct 23, 11:04am

Fri Oct 23, 10:04am

Fri Oct 23, 9:04am

Fri Oct 23, 8:04am

Fri Oct 23, 7:04am

Fri Oct 23, 6:04am

Fri Oct 23, 5:04am

Fri Oct 23, 4:04am

Fri Oct 23, 3:04am

Fri Oct 23, 2:04am

Fri Oct 23, 1:04am

Fri Oct 23, 12:04am

Thu Oct 22, 11:04pm

Thu Oct 22, 10:04pm

Thu Oct 22, 9:05pm

Thu Oct 22, 8:04pm

Thu Oct 22, 7:05pm

Thu Oct 22, 6:04pm

Thu Oct 22, 5:04pm

Thu Oct 22, 4:05pm

Thu Oct 22, 3:04pm

Thu Oct 22, 2:05pm

Thu Oct 22, 1:04pm

Thu Oct 22, 12:04pm

Thu Oct 22, 11:04am

Thu Oct 22, 10:05am

Thu Oct 22, 9:04am

Thu Oct 22, 8:05am

Thu Oct 22, 7:04am

Thu Oct 22, 6:04am

Thu Oct 22, 5:04am

Thu Oct 22, 4:04am

Thu Oct 22, 3:04am

Thu Oct 22, 2:04am

Thu Oct 22, 1:04am

Thu Oct 22, 12:04am

Wed Oct 21, 11:05pm

Wed Oct 21, 10:04pm

Wed Oct 21, 9:04pm

Wed Oct 21, 8:04pm

Wed Oct 21, 7:04pm

Wed Oct 21, 6:04pm

Wed Oct 21, 5:05pm

Wed Oct 21, 4:04pm

Wed Oct 21, 3:04pm

Wed Oct 21, 2:05pm

Wed Oct 21, 1:04pm

Wed Oct 21, 12:04pm

Wed Oct 21, 11:04am

Wed Oct 21, 10:04am

Wed Oct 21, 9:04am

Wed Oct 21, 8:04am

Wed Oct 21, 7:04am

Wed Oct 21, 6:04am

Wed Oct 21, 5:04am

Wed Oct 21, 4:04am

Wed Oct 21, 3:04am

Wed Oct 21, 2:04am

Wed Oct 21, 1:04am

Wed Oct 21, 12:04am

Tue Oct 20, 11:05pm

Tue Oct 20, 10:04pm

Tue Oct 20, 9:04pm

Tue Oct 20, 8:05pm

Tue Oct 20, 7:04pm

Tue Oct 20, 6:04pm

Tue Oct 20, 5:05pm

Tue Oct 20, 4:04pm

Tue Oct 20, 3:05pm

Tue Oct 20, 2:07pm

Tue Oct 20, 1:04pm

Tue Oct 20, 12:04pm

Tue Oct 20, 11:04am

Tue Oct 20, 10:05am

Tue Oct 20, 9:04am

Tue Oct 20, 8:04am

Tue Oct 20, 7:04am

Tue Oct 20, 6:04am

Tue Oct 20, 5:04am

Tue Oct 20, 4:04am

Tue Oct 20, 3:04am

Tue Oct 20, 2:04am

Tue Oct 20, 1:04am

Tue Oct 20, 12:04am

Mon Oct 19, 11:04pm

Mon Oct 19, 10:04pm

Mon Oct 19, 9:04pm

Mon Oct 19, 8:04pm

Mon Oct 19, 7:04pm

Mon Oct 19, 6:04pm

Mon Oct 19, 5:04pm

Mon Oct 19, 4:04pm

Mon Oct 19, 3:04pm

Mon Oct 19, 2:04pm

Mon Oct 19, 1:05pm

Mon Oct 19, 12:04pm

Mon Oct 19, 11:04am

Mon Oct 19, 10:04am

Mon Oct 19, 9:04am

Mon Oct 19, 8:04am

Mon Oct 19, 7:04am

Mon Oct 19, 6:04am

Mon Oct 19, 5:04am

Mon Oct 19, 4:04am

Mon Oct 19, 3:04am

Mon Oct 19, 2:04am

Mon Oct 19, 1:04am

Mon Oct 19, 12:05am

Sun Oct 18, 11:04pm

Sun Oct 18, 10:04pm

Sun Oct 18, 9:04pm

Sun Oct 18, 8:04pm

Sun Oct 18, 7:05pm

Sun Oct 18, 6:04pm

Sun Oct 18, 5:05pm

Sun Oct 18, 4:05pm

Sun Oct 18, 3:04pm

Sun Oct 18, 2:05pm

Sun Oct 18, 1:04pm

Sun Oct 18, 12:04pm

Sun Oct 18, 11:04am

Sun Oct 18, 10:04am

Sun Oct 18, 9:04am

Sun Oct 18, 8:04am

Sun Oct 18, 7:04am

Sun Oct 18, 6:04am

Sun Oct 18, 5:04am

Sun Oct 18, 4:04am

Sun Oct 18, 3:04am

Sun Oct 18, 2:04am

Sun Oct 18, 1:04am

Sun Oct 18, 12:04am

Sat Oct 17, 11:05pm

Sat Oct 17, 10:04pm

Sat Oct 17, 9:04pm

Sat Oct 17, 8:04pm

Sat Oct 17, 7:04pm

Sat Oct 17, 6:04pm

Sat Oct 17, 5:05pm

Sat Oct 17, 4:04pm

Sat Oct 17, 3:04pm

Sat Oct 17, 2:05pm

Sat Oct 17, 1:05pm

Sat Oct 17, 12:04pm

Sat Oct 17, 10:04am

Sat Oct 17, 9:04am

Sat Oct 17, 8:04am

Sat Oct 17, 7:04am

Sat Oct 17, 6:04am

Sat Oct 17, 5:04am

Sat Oct 17, 4:04am

Sat Oct 17, 3:04am

Sat Oct 17, 2:04am

Sat Oct 17, 1:05am

Sat Oct 17, 12:04am

Fri Oct 16, 11:05pm

Fri Oct 16, 10:04pm

Fri Oct 16, 9:05pm

Fri Oct 16, 8:04pm

Fri Oct 16, 7:05pm

Fri Oct 16, 6:04pm

Meta data:

ID: 0638df6d-608f-425e-9c46-5518aef8610d
Link: https://api.weather.gov/products/0638df6d-608f-425e-9c46-5518aef8610d